| time (UTC) | temp F | wind direction | speed knots | gust knots | rain 1hr in | rain 24hr in | rain mn in | humidity % | barometer mb |
| 20260504044550 | 45 | 113 | 1.7 | 2.6 | 0.00 | 0.00 | 0.00 | 70 | 1011.3 |
| 20260504043002 | 46 | 138 | 1.7 | 3.5 | 0.00 | 0.00 | 0.00 | 67 | 1011.2 |
| 20260504041541 | 48 | 135 | 0.9 | 2.6 | 0.00 | 0.00 | 0.00 | 66 | 1011.2 |
| 20260504040009 | 48 | 223 | 0.9 | 2.6 | 0.00 | 0.00 | 0.00 | 63 | 1011.2 |
| 20260504034533 | 49 | 135 | 0.9 | 2.6 | 0.00 | 0.00 | 0.00 | 62 | 1011.3 |
| 20260504033052 | 50 | 149 | 1.7 | 5.2 | 0.00 | 0.00 | 0.00 | 60 | 1011.4 |
| 20260504031501 | 51 | 152 | 1.7 | 3.5 | 0.00 | 0.00 | 0.00 | 56 | 1011.5 |
| 20260504030031 | 51 | 324 | 0.9 | 2.6 | 0.00 | 0.00 | 0.00 | 55 | 1011.5 |
| 20260504024538 | 51 | 219 | 0.9 | 3.5 | 0.00 | 0.00 | 0.00 | 55 | 1011.6 |
| 20260504023051 | 52 | 250 | 1.7 | 6.1 | 0.00 | 0.00 | 0.00 | 55 | 1011.8 |
| 20260504021539 | 52 | 165 | 1.7 | 10.4 | 0.00 | 0.00 | 0.00 | 55 | 1011.9 |
| 20260504020057 | 52 | 189 | 3.5 | 10.4 | 0.00 | 0.00 | 0.00 | 55 | 1011.9 |
| 20260504014512 | 52 | 264 | 7.0 | 16.5 | 0.00 | 0.00 | 0.00 | 55 | 1011.9 |
| 20260504013047 | 52 | 198 | 8.7 | 14.8 | 0.00 | 0.00 | 0.00 | 55 | 1012.1 |
| 20260504011556 | 53 | 210 | 7.8 | 18.2 | 0.00 | 0.00 | 0.00 | 54 | 1011.8 |
| 20260504010023 | 52 | 232 | 5.2 | 17.4 | 0.00 | 0.00 | 0.00 | 54 | 1011.5 |
| 20260504004543 | 52 | 269 | 2.6 | 16.5 | 0.00 | 0.00 | 0.00 | 56 | 1011.8 |
| 20260504003100 | 52 | 283 | 7.0 | 14.8 | 0.00 | 0.00 | 0.00 | 55 | 1011.8 |
| 20260504001511 | 52 | 319 | 7.8 | 26.1 | 0.00 | 0.00 | 0.00 | 54 | 1011.5 |
| 20260504000050 | 53 | 304 | 4.3 | 13.0 | 0.00 | 0.00 | 0.00 | 54 | 1011.5 |
| 20260503234538 | 53 | 237 | 4.3 | 21.7 | 0.00 | 0.00 | 0.00 | 54 | 1011.5 |
| 20260503233014 | 54 | 236 | 7.0 | 20.0 | 0.00 | 0.00 | 0.00 | 51 | 1011.0 |
| 20260503231551 | 54 | 195 | 3.5 | 13.0 | 0.00 | 0.00 | 0.00 | 52 | 1010.8 |
| 20260503230115 | 54 | 1 | 1.7 | 7.8 | 0.00 | 0.00 | 0.00 | 51 | 1010.7 |
| 20260503224524 | 54 | 234 | 0.9 | 4.3 | 0.00 | 0.00 | 0.00 | 52 | 1010.7 |
| 20260503223049 | 54 | 284 | 3.5 | 5.2 | 0.00 | 0.00 | 0.00 | 52 | 1010.8 |
| 20260503221502 | 54 | 197 | 2.6 | 9.6 | 0.00 | 0.00 | 0.00 | 51 | 1010.9 |
| 20260503220034 | 55 | 259 | 3.5 | 13.0 | 0.00 | 0.00 | 0.00 | 49 | 1011.1 |
| 20260503214550 | 55 | 223 | 4.3 | 10.4 | 0.00 | 0.00 | 0.00 | 50 | 1011.1 |
| 20260503213028 | 55 | 241 | 2.6 | 8.7 | 0.00 | 0.00 | 0.00 | 53 | 1011.1 |
| 20260503211545 | 55 | 223 | 7.0 | 13.0 | 0.00 | 0.00 | 0.00 | 51 | 1011.1 |
| 20260503210008 | 54 | 248 | 4.3 | 13.0 | 0.00 | 0.00 | 0.00 | 51 | 1011.1 |
| 20260503204538 | 53 | 169 | 7.0 | 13.9 | 0.00 | 0.00 | 0.00 | 52 | 1011.3 |
| 20260503203026 | 52 | 250 | 8.7 | 28.7 | 0.00 | 0.00 | 0.00 | 53 | 1011.5 |
| 20260503201602 | 53 | 240 | 4.3 | 15.6 | 0.00 | 0.00 | 0.00 | 53 | 1011.5 |
| 20260503200040 | 54 | 278 | 7.0 | 18.2 | 0.00 | 0.00 | 0.00 | 51 | 1011.7 |
| 20260503194558 | 54 | 274 | 8.7 | 16.5 | 0.00 | 0.00 | 0.00 | 54 | 1011.9 |
| 20260503193034 | 52 | 262 | 8.7 | 14.8 | 0.00 | 0.00 | 0.00 | 51 | 1012.1 |
| 20260503191542 | 52 | 311 | 7.0 | 19.1 | 0.00 | 0.00 | 0.00 | 48 | 1012.2 |
| 20260503190105 | 54 | 265 | 7.8 | 16.5 | 0.00 | 0.00 | 0.00 | 50 | 1012.2 |
| 20260503184524 | 54 | 237 | 8.7 | 20.0 | 0.00 | 0.00 | 0.00 | 49 | 1012.1 |
| 20260503183041 | 54 | 326 | 6.1 | 13.9 | 0.00 | 0.00 | 0.00 | 48 | 1012.4 |
| 20260503181602 | 52 | 172 | 6.1 | 13.9 | 0.00 | 0.00 | 0.00 | 51 | 1012.5 |
| 20260503180022 | 52 | 214 | 5.2 | 14.8 | 0.00 | 0.00 | 0.00 | 50 | 1012.7 |
| 20260503174604 | 52 | 274 | 6.1 | 19.1 | 0.00 | 0.00 | 0.00 | 48 | 1012.8 |
| 20260503173027 | 52 | 149 | 2.6 | 17.4 | 0.00 | 0.00 | 0.00 | 52 | 1013.0 |
| 20260503171506 | 50 | 288 | 7.8 | 19.1 | 0.00 | 0.00 | 0.00 | 52 | 1013.2 |
| 20260503081541 | 36 | 285 | 2.6 | 7.0 | 0.00 | 0.00 | 0.00 | 79 | 1014.0 |
| 20260503071545 | 37 | 346 | 3.5 | 7.8 | 0.00 | 0.00 | 0.00 | 79 | 1013.9 |